Brodhead, KY (40409)

11:13 PM EST del 17 Gennaio 2017 (GMT -0500)
Green Fish Hill | | Change Station

Alt. 1214 ft 37.42 °N, 84.33 °W | Updated 3 seconds ago

Coperto
Coperto
49.1 °F
Sembra 48 °F
N
3.8
Vento Variabile Vento da NNE
Gusts 9.8 mph

Oggi
Massima -- | Minima -- °F
--% Possibilità di precip.
Ieri
Massima -- | Minima -- °F
Precip. -- in
Pressione 30.10 in
Visibilità 10.0 miglia
Nuvole Molto nuvoloso 1600 ft
Coperto 2300 ft
Raffreddamento del vento 48 °F
Punto di rugiada 49 °F
Umidità 99%
Piovosità 0.97 in
Spessore del manto nevoso Non disponibile.
7:50 AM 5:45 PM
Gobba a levante, 67% visible
METAR KDVK 180355Z AUTO 32005KT 10SM BKN016 OVC023 08/06 A3010 RMK AO2
Pressione 30.10 in
Visibilità 10.0 miglia
Nuvole Molto nuvoloso 1600 ft
Coperto 2300 ft
Raffreddamento del vento 48 °F
Punto di rugiada 49 °F
Umidità 99%
Piovosità 0.97 in
Spessore del manto nevoso Non disponibile.
7:50 AM 5:45 PM
Gobba a levante, 67% visible
METAR KDVK 180355Z AUTO 32005KT 10SM BKN016 OVC023 08/06 A3010 RMK AO2

Get Your Daily Forecast Email!

Thanks for signing up!

Be on the lookout for a verification email in your inbox.

You'll start receiving the daily forecast at 8 AM.

×

10-Day Weather Forecast

Almanac

Astronomia

Jan. 17, 2017 Alba Tramonto
Ora attuale
Crepuscolo civile
Crepuscolo nautico
Crepuscolo astronomico
Luna
Estensione della luce visibile
Lunghezza del giorno
Tomorrow will be .
, % of the Moon is Illuminated

Gli estremi di oggi

State Highs State Lows

Community

WunderPhotos

Upload Photos

1,962,540 foto caricate!

WunderBlog® & News

Nearby

Qualità dell'aria

  Qualità dell'aria Indice AQ Inquinante
Not available.

Profondità neve

Stazione Profondità Altitudine

Attività sismica

Città  Distanza Mag. Data & Ora
Minimo Magnitudo Mostrato è 2.5.

Temperature delle acque costiere

Località Temperatura

Stations

Stazioni meteo nelle vicinanze

Ubicazione della stazione Temp. Raffreddamento del vento Punto di rugiada Umidità Vento Precip. Alt. Aggiornato Tipo
                   

Watches & Warnings

There are currently no watches in effect.